Location: Brotuna
(46.2000°N, 22.6000°E)
Time: 13:02:16
(UTC+00:00)

SeaSat 1 - Pass Details

Date: 09 April 2020
Orbit: 745 x 746 km, 108.0° (Epoch: 02 June)

Event Time Altitude Azimuth Distance (km) Brightness Sun altitude
Rises 18:11:18 0° 23° (NNE) 3,200 5.7 -11.0°
Reaches altitude 10° 18:13:38 10° 18° (NNE) 2,272 5.0 -11.4°
Maximum altitude 18:18:23 49° 305° (NW) 964 3.5 -12.1°
Drops below altitude 10° 18:23:06 10° 232° (SW) 2,259 5.3 -12.8°
Sets 18:25:24 0° 226° (SW) 3,179 6.0 -13.2°
